Вернуться в каталог

STARLINK-36346

АктивенСвязьSSO
NORAD 67818·PAYLOAD·🇺🇸 United States

Запущен Feb 15, 2026 с Vandenberg Space Force Base

Loading…

Ближайшие Пролёты (ближайшие 24 часа)

TLE

СвежийSource: CelesTrak SupGP

Эпоха: Sep 15, 2026, 03:31 UTC

1 67818C 26032X   26258.14701389 -.00055374  00000+0 -17191-2 0  2583
2 67818  97.2856  84.6956 0001727  91.2545 108.3163 15.33464165    11

Отслеживайте STARLINK-36346 в реальном времени с AllMySat

Download on the App Store